Date String (YYYY-MM-DD hh:mm:ss) UTC,Instrument flags,Ambient pressure (hPa),Sample flow (lpm),Bypass flow (lpm),Sample temperature (°C),Ambient temperature (°C),ASC tube jacket temperature (°C),LED temperature (°C),Box temperature (°C),Sample RH (%),Span deviation,Mass concentration (μg/m³),Mass concentration (μg/m³),Mass concentration (μg/m³)
DateTimeUTC,F1_M11,P_M11,Q1_M11,Q2_M11,T1_M11,T2_M11,T3_M11,T4_M11,T5_M11,U1_M11,ZSPAN_M11,X0_M11,X2_M11,X1_M11
2022-12-12 21:00:00,,0808.1,4.99,0.00,24.2,23.0,00.0,33.0,26.2,08.5,0000.0,0010.90,0005.08,0004.30
2022-12-12 21:01:00,,0808.1,4.99,0.00,24.3,23.0,00.0,33.0,26.2,08.5,0000.0,0011.00,0005.05,0004.26
2022-12-12 21:02:00,,0808.0,5.00,0.00,24.3,23.0,00.0,33.0,26.2,08.6,0000.0,0011.09,0005.03,0004.26
2022-12-12 21:03:00,,0808.0,5.00,0.00,24.3,23.0,00.0,33.1,26.3,08.5,0000.0,0011.46,0005.06,0004.27
2022-12-12 21:04:00,,0808.0,5.01,0.00,24.3,23.0,00.0,33.1,26.3,08.4,0000.0,0011.64,0005.06,0004.29
2022-12-12 21:05:00,,0807.9,5.01,0.00,24.3,23.0,00.0,33.1,26.3,08.5,0000.0,0011.39,0005.05,0004.29
2022-12-12 21:06:00,,0807.9,4.99,0.00,24.3,23.0,00.0,33.1,26.3,08.5,0000.0,0012.07,0005.07,0004.31
2022-12-12 21:07:00,,0807.9,4.99,0.00,24.3,23.0,00.0,33.1,26.2,08.5,0000.0,0012.36,0005.12,0004.32
2022-12-12 21:08:00,,0808.0,4.99,0.00,24.3,23.0,00.0,33.1,26.2,08.6,0000.0,0012.86,0005.14,0004.34
2022-12-12 21:09:00,,0808.0,5.00,0.00,24.3,23.0,00.0,33.1,26.3,08.6,0000.0,0012.63,0005.18,0004.37
2022-12-12 21:10:00,,0808.0,5.01,0.00,24.3,23.0,00.0,33.1,26.3,08.7,0000.0,0012.80,0005.28,0004.43
2022-12-12 21:11:00,,0808.0,5.00,0.00,24.3,23.0,00.0,33.1,26.3,08.7,0000.0,0012.79,0005.35,0004.48
2022-12-12 21:12:00,,0808.0,5.00,0.00,24.3,23.0,00.0,33.1,26.2,08.8,0000.0,0012.82,0005.42,0004.54
2022-12-12 21:13:00,,0808.0,4.99,0.00,24.3,23.0,00.0,33.1,26.3,08.8,0000.0,0012.82,0005.50,0004.57
2022-12-12 21:14:00,,0808.0,5.01,0.00,24.3,23.0,00.0,33.1,26.3,08.8,0000.0,0013.06,0005.58,0004.62
2022-12-12 21:15:00,,0808.0,5.01,0.00,24.3,23.0,00.0,33.1,26.2,08.9,0000.0,0013.24,0005.67,0004.67
2022-12-12 21:16:00,,0807.9,5.00,0.00,24.3,23.0,00.0,33.1,26.3,08.9,0000.0,0013.95,0005.73,0004.72
2022-12-12 21:17:00,,0808.0,4.99,0.00,24.3,23.0,00.0,33.1,26.3,08.9,0000.0,0013.39,0005.79,0004.76
2022-12-12 21:18:00,,0808.0,5.00,0.00,24.3,22.9,00.0,33.1,26.3,08.8,0000.0,0013.70,0005.82,0004.80
2022-12-12 21:19:00,,0808.1,5.00,0.00,24.3,22.9,00.0,33.1,26.3,08.9,0000.0,0013.52,0005.88,0004.85
2022-12-12 21:20:00,,0808.1,5.00,0.00,24.3,22.9,00.0,33.1,26.2,09.0,0000.0,0013.57,0005.95,0004.89
2022-12-12 21:21:00,,0808.1,5.00,0.00,24.3,22.9,00.0,33.1,26.3,09.0,0000.0,0013.88,0006.02,0004.91
2022-12-12 21:22:00,,0808.1,5.01,0.00,24.3,22.9,00.0,33.1,26.3,08.9,0000.0,0014.34,0006.09,0004.93
2022-12-12 21:23:00,,0808.1,5.00,0.00,24.3,22.9,00.0,33.1,26.2,09.0,0000.0,0014.69,0006.14,0004.94
2022-12-12 21:24:00,,0808.1,4.99,0.00,24.3,22.9,00.0,33.1,26.3,08.9,0000.0,0014.80,0006.20,0004.97
2022-12-12 21:25:00,,0808.0,5.00,0.00,24.3,22.9,00.0,33.1,26.3,09.0,0000.0,0014.57,0006.17,0004.96
2022-12-12 21:26:00,,0808.0,5.01,0.00,24.3,22.9,00.0,33.1,26.3,08.9,0000.0,0014.13,0006.13,0004.95
2022-12-12 21:27:00,,0808.0,5.00,0.00,24.3,22.9,00.0,33.1,26.3,08.9,0000.0,0013.98,0006.18,0004.94
2022-12-12 21:28:00,,0808.0,5.01,0.00,24.3,23.0,00.0,33.1,26.3,08.8,0000.0,0013.73,0006.19,0004.95
2022-12-12 21:29:00,,0808.0,5.00,0.00,24.3,22.9,00.0,33.1,26.2,08.8,0000.0,0013.42,0006.19,0004.95
2022-12-12 21:30:00,,0808.1,5.00,0.00,24.3,22.9,00.0,33.1,26.2,08.9,0000.0,0013.17,0006.20,0004.95
2022-12-12 21:31:00,,0808.0,5.00,0.00,24.3,22.9,00.0,33.1,26.2,09.0,0000.0,0012.63,0006.19,0004.95
2022-12-12 21:32:00,,0808.0,5.00,0.00,24.3,22.9,00.0,33.1,26.2,09.0,0000.0,0012.34,0006.12,0004.95
2022-12-12 21:33:00,,0807.9,5.00,0.00,24.3,22.9,00.0,33.1,26.2,08.9,0000.0,0013.69,0006.07,0004.95
2022-12-12 21:34:00,,0807.8,4.99,0.00,24.3,22.9,00.0,33.1,26.3,08.8,0000.0,0014.25,0006.05,0004.95
2022-12-12 21:35:00,,0807.7,5.00,0.00,24.3,22.9,00.0,33.1,26.3,08.8,0000.0,0014.71,0006.01,0004.94
2022-12-12 21:36:00,,0807.7,4.99,0.00,24.3,22.9,00.0,33.1,26.3,08.8,0000.0,0015.13,0006.03,0004.95
2022-12-12 21:37:00,,0807.8,5.00,0.00,24.3,22.9,00.0,33.1,26.3,08.9,0000.0,0015.73,0006.04,0004.96
2022-12-12 21:38:00,,0807.7,5.02,0.00,24.3,22.9,00.0,33.1,26.3,08.9,0000.0,0015.68,0006.00,0004.97
2022-12-12 21:39:00,,0807.6,5.00,0.00,24.3,22.9,00.0,33.1,26.2,09.0,0000.0,0016.92,0006.05,0004.97
2022-12-12 21:40:00,,0807.7,4.99,0.00,24.3,22.8,00.0,33.1,26.2,09.0,0000.0,0017.21,0006.06,0004.97
2022-12-12 21:41:00,,0807.7,5.00,0.00,24.3,22.7,00.0,33.1,26.2,09.0,0000.0,0018.75,0006.06,0004.98
2022-12-12 21:42:00,,0807.6,5.01,0.00,24.3,22.7,00.0,33.1,26.2,09.0,0000.0,0019.70,0006.08,0004.99
2022-12-12 21:43:00,,0807.7,5.01,0.00,24.2,22.7,00.0,33.1,26.2,09.1,0000.0,0020.70,0006.10,0005.00
2022-12-12 21:44:00,,0807.7,5.00,0.00,24.2,22.6,00.0,33.1,26.1,09.0,0000.0,0020.84,0006.14,0005.01
2022-12-12 21:45:00,,0807.6,5.00,0.00,24.2,22.6,00.0,33.1,26.1,09.1,0000.0,0020.06,0006.21,0005.03
2022-12-12 21:46:00,,0807.6,5.00,0.00,24.2,22.6,00.0,33.1,26.1,09.1,0000.0,0019.88,0006.26,0005.04
2022-12-12 21:47:00,,0807.7,5.01,0.00,24.2,22.6,00.0,33.1,26.1,09.1,0000.0,0020.59,0006.31,0005.04
2022-12-12 21:48:00,,0807.6,5.00,0.00,24.2,22.6,00.0,33.1,26.1,09.2,0000.0,0020.13,0006.33,0005.04
2022-12-12 21:49:00,,0807.7,4.99,0.00,24.2,22.6,00.0,33.1,26.0,09.2,0000.0,0020.50,0006.40,0005.05
2022-12-12 21:50:00,,0807.7,4.99,0.00,24.2,22.6,00.0,33.1,26.0,09.2,0000.0,0020.59,0006.43,0005.05
2022-12-12 21:51:00,,0807.7,5.00,0.00,24.1,22.6,00.0,33.1,26.0,09.2,0000.0,0021.50,0006.48,0005.05
2022-12-12 21:52:00,,0807.6,5.01,0.00,24.1,22.6,00.0,33.1,26.0,09.3,0000.0,0021.12,0006.55,0005.06
2022-12-12 21:53:00,,0807.7,5.01,0.00,24.1,22.6,00.0,33.0,26.1,09.2,0000.0,0020.55,0006.63,0005.06
2022-12-12 21:54:00,,0807.6,4.99,0.00,24.1,22.6,00.0,33.0,26.0,09.3,0000.0,0020.94,0006.67,0005.05
2022-12-12 21:55:00,,0807.6,4.99,0.00,24.1,22.6,00.0,33.0,26.0,09.3,0000.0,0020.81,0006.69,0005.03
2022-12-12 21:56:00,,0807.6,5.00,0.00,24.1,22.7,00.0,33.0,26.0,09.4,0000.0,0020.88,0006.69,0005.04
2022-12-12 21:57:00,,0807.6,5.00,0.00,24.1,22.7,00.0,33.0,26.0,09.4,0000.0,0022.20,0006.75,0005.05
2022-12-12 21:58:00,,0807.7,5.00,0.00,24.1,22.7,00.0,33.0,26.1,09.5,0000.0,0022.57,0006.74,0005.06
2022-12-12 21:59:00,,0807.6,5.01,0.00,24.1,22.7,00.0,33.0,26.1,09.6,0000.0,0022.35,0006.77,0005.05
